Location: Erdweis
(48.5167°N, 15.3500°E)
Time: 11:29:15
(UTC+00:00)

X-37B - Pass Details

Date: 28 November 2020
Orbit: 384 x 390 km, 45.0° (Epoch: 02 January)

Event Time Altitude Azimuth Distance (km) Brightness Sun altitude
Rises 17:07:44 0° 224° (SW) 2,257 5.4 -19.3°
Reaches altitude 10° 17:10:06 10° 207° (SSW) 1,408 3.9 -19.7°
Enters shadow 17:11:58 20° 173° (S) 976 2.6 -20.0°
